owner,sensor,date,latitude,longitude,air_pressure(mBar),qcFlag 
TABS,ioos:station:wmo:42045:1,2016-05-03T15:00:00Z,26.2168,-96.4998,1008.48,1111122 
TABS,ioos:station:wmo:42045:1,2016-05-03T15:30:00Z,26.2168,-96.4998,1008.34,1111122 
TABS,ioos:station:wmo:42045:1,2016-05-03T16:30:00Z,26.2168,-96.4998,1008.11,1111122 
TABS,ioos:station:wmo:42045:1,2016-05-03T17:30:00Z,26.2168,-96.4998,1007.34,1111122 
TABS,ioos:station:wmo:42045:1,2016-05-03T18:30:00Z,26.2168,-96.4998,1006.53,1111122 
TABS,ioos:station:wmo:42045:1,2016-05-03T19:30:00Z,26.2168,-96.4998,1005.88,1111122 
TABS,ioos:station:wmo:42045:1,2016-05-04T13:35:00Z,26.2168,-96.4998,1008.25,1111122 
TABS,ioos:station:wmo:42045:1,2016-05-04T15:00:00Z,26.2168,-96.4998,1008.42,1111122 
TABS,ioos:station:wmo:42045:1,2016-05-04T17:00:00Z,26.2168,-96.4998,1007.43,1111122 
TABS,ioos:station:wmo:42045:1,2016-05-04T17:30:00Z,26.2168,-96.4998,1006.99,1111122 
TABS,ioos:station:wmo:42045:1,2016-05-04T20:00:00Z,26.2168,-96.4998,1005.03,1111122 
TABS,ioos:station:wmo:42045:1,2016-05-04T21:00:00Z,26.2168,-96.4998,1004.15,1111122 
TABS,ioos:station:wmo:42045:1,2016-05-04T21:30:00Z,26.2168,-96.4998,1003.77,1111122 
TABS,ioos:station:wmo:42045:1,2016-05-04T23:00:00Z,26.2168,-96.4998,1003.46,1111122 
TABS,ioos:station:wmo:42045:1,2016-05-04T23:30:00Z,26.2168,-96.4998,1003.12,1111122 
TABS,ioos:station:wmo:42045:1,2016-05-05T05:00:00Z,26.2168,-96.4998,1004.61,1111122 
TABS,ioos:station:wmo:42045:1,2016-05-05T05:30:00Z,26.2168,-96.4998,1004.63,1111122 
TABS,ioos:station:wmo:42045:1,2016-05-05T07:00:00Z,26.2168,-96.4998,1004.63,1111122 
TABS,ioos:station:wmo:42045:1,2016-05-05T08:00:00Z,26.2168,-96.4998,1004.46,1111122 
TABS,ioos:station:wmo:42045:1,2016-05-05T08:30:00Z,26.2168,-96.4998,1004.29,1111122 
TABS,ioos:station:wmo:42045:1,2016-05-05T10:00:00Z,26.2168,-96.4998,1004.95,1111122 
TABS,ioos:station:wmo:42045:1,2016-05-05T12:00:00Z,26.2168,-96.4998,1005.69,1111122 
TABS,ioos:station:wmo:42045:1,2016-05-05T13:00:00Z,26.2168,-96.4998,1006.44,1111122 
TABS,ioos:station:wmo:42045:1,2016-05-05T14:00:00Z,26.2168,-96.4998,1006.79,1111122 
TABS,ioos:station:wmo:42045:1,2016-05-05T15:00:00Z,26.2168,-96.4998,1007.12,1111122 
TABS,ioos:station:wmo:42045:1,2016-05-05T16:00:00Z,26.2168,-96.4998,1007.18,1111122 
TABS,ioos:station:wmo:42045:1,2016-05-05T17:00:00Z,26.2168,-96.4998,1006.97,1111122 
TABS,ioos:station:wmo:42045:1,2016-05-05T17:30:00Z,26.2168,-96.4998,1006.74,1111122 
TABS,ioos:station:wmo:42045:1,2016-05-05T19:00:00Z,26.2168,-96.4998,1005.8,1111122 
TABS,ioos:station:wmo:42045:1,2016-05-05T20:00:00Z,26.2168,-96.4998,1004.95,1111122 
TABS,ioos:station:wmo:42045:1,2016-05-05T21:00:00Z,26.2168,-96.4998,1004.46,1111122 
TABS,ioos:station:wmo:42045:1,2016-05-05T23:00:00Z,26.2168,-96.4998,1003.42,1111122 
TABS,ioos:station:wmo:42045:1,2016-05-05T23:30:00Z,26.2168,-96.4998,1003.4,1111122 
TABS,ioos:station:wmo:42045:1,2016-05-06T06:00:00Z,26.2168,-96.4998,1006.2,1111122 
TABS,ioos:station:wmo:42045:1,2016-05-06T09:00:00Z,26.2168,-96.4998,1005.57,1111122 
TABS,ioos:station:wmo:42045:1,2016-05-06T10:00:00Z,26.2168,-96.4998,1005.78,1111122 
TABS,ioos:station:wmo:42045:1,2016-05-06T11:00:00Z,26.2168,-96.4998,1006.22,1111122 
TABS,ioos:station:wmo:42045:1,2016-05-06T12:00:00Z,26.2168,-96.4998,1006.97,1111122 
TABS,ioos:station:wmo:42045:1,2016-05-06T13:30:00Z,26.2168,-96.4998,1007.72,1111122 
TABS,ioos:station:wmo:42045:1,2016-05-06T14:30:00Z,26.2168,-96.4998,1007.94,1111122 
TABS,ioos:station:wmo:42045:1,2016-05-06T16:00:00Z,26.2168,-96.4998,1008.16,1111122 
TABS,ioos:station:wmo:42045:1,2016-05-06T17:00:00Z,26.2168,-96.4998,1008.03,1111122 
TABS,ioos:station:wmo:42045:1,2016-05-06T18:00:00Z,26.2168,-96.4998,1007.36,1111122 
TABS,ioos:station:wmo:42045:1,2016-05-06T19:00:00Z,26.2168,-96.4998,1006.87,1111122 
TABS,ioos:station:wmo:42045:1,2016-05-06T20:00:00Z,26.2168,-96.4998,1006.27,1111122 
TABS,ioos:station:wmo:42045:1,2016-05-06T21:00:00Z,26.2168,-96.4998,1005.37,1111122 
TABS,ioos:station:wmo:42045:1,2016-05-06T22:00:00Z,26.2168,-96.4998,1004.79,1111122 
TABS,ioos:station:wmo:42045:1,2016-05-06T22:30:00Z,26.2168,-96.4998,1004.6,1111122 
TABS,ioos:station:wmo:42045:1,2016-05-06T23:30:00Z,26.2168,-96.4998,1004.31,1111122 
TABS,ioos:station:wmo:42045:1,2016-05-07T06:00:00Z,26.2168,-96.4998,1005.9,1111122 
TABS,ioos:station:wmo:42045:1,2016-05-07T07:00:00Z,26.2168,-96.4998,1005.75,1111122 
TABS,ioos:station:wmo:42045:1,2016-05-07T08:00:00Z,26.2168,-96.4998,1005.13,1111122 
TABS,ioos:station:wmo:42045:1,2016-05-07T09:00:00Z,26.2168,-96.4998,1005.0,1111122 
TABS,ioos:station:wmo:42045:1,2016-05-07T10:00:00Z,26.2168,-96.4998,1004.98,1111122 
TABS,ioos:station:wmo:42045:1,2016-05-07T11:00:00Z,26.2168,-96.4998,1005.23,1111122 
TABS,ioos:station:wmo:42045:1,2016-05-07T12:00:00Z,26.2168,-96.4998,1005.6,1111122 
TABS,ioos:station:wmo:42045:1,2016-05-07T12:30:00Z,26.2168,-96.4998,1005.71,1111122 
TABS,ioos:station:wmo:42045:1,2016-05-07T14:00:00Z,26.2168,-96.4998,1006.25,1111122 
TABS,ioos:station:wmo:42045:1,2016-05-07T14:30:00Z,26.2168,-96.4998,1006.16,1111122 
TABS,ioos:station:wmo:42045:1,2016-05-07T15:30:00Z,26.2168,-96.4998,1005.99,1111122 
TABS,ioos:station:wmo:42045:1,2016-05-07T17:00:00Z,26.2168,-96.4998,1006.33,1111122 
TABS,ioos:station:wmo:42045:1,2016-05-07T18:00:00Z,26.2168,-96.4998,1006.01,1111122 
TABS,ioos:station:wmo:42045:1,2016-05-07T19:00:00Z,26.2168,-96.4998,1005.02,1111122 
TABS,ioos:station:wmo:42045:1,2016-05-07T20:00:00Z,26.2168,-96.4998,1004.47,1111122 
TABS,ioos:station:wmo:42045:1,2016-05-07T22:00:00Z,26.2168,-96.4998,1003.53,1111122 
TABS,ioos:station:wmo:42045:1,2016-05-07T23:00:00Z,26.2168,-96.4998,1002.46,1111122 
TABS,ioos:station:wmo:42045:1,2016-05-07T23:30:00Z,26.2168,-96.4998,1002.55,1111122 
TABS,ioos:station:wmo:42045:1,2016-05-08T06:00:00Z,26.2168,-96.4998,1003.73,1111122 
TABS,ioos:station:wmo:42045:1,2016-05-08T09:00:00Z,26.2168,-96.4998,1002.07,1111122 
TABS,ioos:station:wmo:42045:1,2016-05-08T09:30:00Z,26.2168,-96.4998,1001.43,1111122 
TABS,ioos:station:wmo:42045:1,2016-05-08T11:00:00Z,26.2168,-96.4998,1001.47,1111122 
TABS,ioos:station:wmo:42045:1,2016-05-08T11:30:00Z,26.2168,-96.4998,1001.7,1111122 
TABS,ioos:station:wmo:42045:1,2016-05-08T13:00:00Z,26.2168,-96.4998,1001.94,1111122 
TABS,ioos:station:wmo:42045:1,2016-05-08T13:30:00Z,26.2168,-96.4998,1002.04,1111122 
TABS,ioos:station:wmo:42045:1,2016-05-08T15:00:00Z,26.2168,-96.4998,1001.4,1111122 
TABS,ioos:station:wmo:42045:1,2016-05-08T16:00:00Z,26.2168,-96.4998,1002.08,1111122 
TABS,ioos:station:wmo:42045:1,2016-05-08T17:00:00Z,26.2168,-96.4998,1003.16,1111122 
TABS,ioos:station:wmo:42045:1,2016-05-08T18:00:00Z,26.2168,-96.4998,1002.73,1111122 
TABS,ioos:station:wmo:42045:1,2016-05-08T20:00:00Z,26.2168,-96.4998,1001.44,1111122 
TABS,ioos:station:wmo:42045:1,2016-05-08T20:30:00Z,26.2168,-96.4998,1001.0,1111122 
TABS,ioos:station:wmo:42045:1,2016-05-08T22:00:00Z,26.2168,-96.4998,998.34,1111122 
TABS,ioos:station:wmo:42045:1,2016-05-08T23:00:00Z,26.2168,-96.4998,998.82,1111122 
TABS,ioos:station:wmo:42045:1,2016-05-08T23:30:00Z,26.2168,-96.4998,1000.16,1111122 
TABS,ioos:station:wmo:42045:1,2016-05-09T05:30:00Z,26.2168,-96.4998,999.24,1111122 
TABS,ioos:station:wmo:42045:1,2016-05-09T07:00:00Z,26.2168,-96.4998,998.48,1111122 
TABS,ioos:station:wmo:42045:1,2016-05-09T08:00:00Z,26.2168,-96.4998,998.0,1111122 
TABS,ioos:station:wmo:42045:1,2016-05-09T09:00:00Z,26.2168,-96.4998,997.91,1111122 
TABS,ioos:station:wmo:42045:1,2016-05-09T11:00:00Z,26.2168,-96.4998,998.03,1111122 
TABS,ioos:station:wmo:42045:1,2016-05-09T11:30:00Z,26.2168,-96.4998,997.61,1111122 
TABS,ioos:station:wmo:42045:1,2016-05-11T20:30:00Z,26.2168,-96.4998,1003.85,1111122 
TABS,ioos:station:wmo:42045:1,2016-05-11T21:30:00Z,26.2168,-96.4998,1003.63,1111122 
TABS,ioos:station:wmo:42045:1,2016-05-11T23:00:00Z,26.2168,-96.4998,1003.59,1111122 
TABS,ioos:station:wmo:42045:1,2016-05-11T23:30:00Z,26.2168,-96.4998,1003.53,1111122 
TABS,ioos:station:wmo:42045:1,2016-05-12T06:00:00Z,26.2168,-96.4998,1006.05,1111122 
TABS,ioos:station:wmo:42045:1,2016-05-12T07:00:00Z,26.2168,-96.4998,1006.22,1111122 
TABS,ioos:station:wmo:42045:1,2016-05-12T08:00:00Z,26.2168,-96.4998,1007.31,1111122 
TABS,ioos:station:wmo:42045:1,2016-05-12T08:30:00Z,26.2168,-96.4998,1006.9,1111122 
TABS,ioos:station:wmo:42045:1,2016-05-12T10:00:00Z,26.2168,-96.4998,1005.92,1111122 
TABS,ioos:station:wmo:42045:1,2016-05-12T10:30:00Z,26.2168,-96.4998,1006.24,1111122 
TABS,ioos:station:wmo:42045:1,2016-05-12T13:00:00Z,26.2168,-96.4998,1007.7,1111122 
TABS,ioos:station:wmo:42045:1,2016-05-12T14:30:00Z,26.2168,-96.4998,1008.36,1111122 
TABS,ioos:station:wmo:42045:1,2016-05-12T15:30:00Z,26.2168,-96.4998,1009.49,1111122 
TABS,ioos:station:wmo:42045:1,2016-05-12T17:00:00Z,26.2168,-96.4998,1010.4,1111122 
TABS,ioos:station:wmo:42045:1,2016-05-12T18:30:00Z,26.2168,-96.4998,1009.17,1111122 
TABS,ioos:station:wmo:42045:1,2016-05-12T19:30:00Z,26.2168,-96.4998,1006.72,1111122 
TABS,ioos:station:wmo:42045:1,2016-05-12T21:00:00Z,26.2168,-96.4998,1007.04,1111122 
TABS,ioos:station:wmo:42045:1,2016-05-12T23:00:00Z,26.2168,-96.4998,1007.18,1111122 
TABS,ioos:station:wmo:42045:1,2016-05-12T23:30:00Z,26.2168,-96.4998,1007.02,1111122 
TABS,ioos:station:wmo:42045:1,2016-05-13T06:00:00Z,26.2168,-96.4998,1009.1,1111122 
TABS,ioos:station:wmo:42045:1,2016-05-13T10:30:00Z,26.2168,-96.4998,1009.22,1111122 
TABS,ioos:station:wmo:42045:1,2016-05-13T13:00:00Z,26.2168,-96.4998,1010.25,1111122 
TABS,ioos:station:wmo:42045:1,2016-05-13T14:00:00Z,26.2168,-96.4998,1010.58,1111122 
TABS,ioos:station:wmo:42045:1,2016-05-13T15:30:00Z,26.2168,-96.4998,1010.45,1111122 
TABS,ioos:station:wmo:42045:1,2016-05-13T16:30:00Z,26.2168,-96.4998,1010.32,1111122 
TABS,ioos:station:wmo:42045:1,2016-05-13T17:30:00Z,26.2168,-96.4998,1009.71,1111122 
TABS,ioos:station:wmo:42045:1,2016-05-13T19:00:00Z,26.2168,-96.4998,1008.65,1111122 
TABS,ioos:station:wmo:42045:1,2016-05-13T20:00:00Z,26.2168,-96.4998,1008.05,1111122 
TABS,ioos:station:wmo:42045:1,2016-05-13T20:30:00Z,26.2168,-96.4998,1007.64,1111122 
TABS,ioos:station:wmo:42045:1,2016-05-13T22:00:00Z,26.2168,-96.4998,1006.28,1111122 
TABS,ioos:station:wmo:42045:1,2016-05-13T22:30:00Z,26.2168,-96.4998,1005.94,1111122 
TABS,ioos:station:wmo:42045:1,2016-05-13T23:30:00Z,26.2168,-96.4998,1005.49,1111122 
TABS,ioos:station:wmo:42045:1,2016-05-14T06:00:00Z,26.2168,-96.4998,1006.77,1111122 
TABS,ioos:station:wmo:42045:1,2016-05-14T10:00:00Z,26.2168,-96.4998,1006.28,1111122 
TABS,ioos:station:wmo:42045:1,2016-05-14T11:00:00Z,26.2168,-96.4998,1006.79,1111122 
TABS,ioos:station:wmo:42045:1,2016-05-14T12:00:00Z,26.2168,-96.4998,1007.4,1111122 
TABS,ioos:station:wmo:42045:1,2016-05-14T12:30:00Z,26.2168,-96.4998,1007.41,1111122 
TABS,ioos:station:wmo:42045:1,2016-05-14T17:00:00Z,26.2168,-96.4998,1007.43,1111122 
TABS,ioos:station:wmo:42045:1,2016-05-14T18:00:00Z,26.2168,-96.4998,1006.62,1111122 
TABS,ioos:station:wmo:42045:1,2016-05-14T19:00:00Z,26.2168,-96.4998,1005.81,1111122 
TABS,ioos:station:wmo:42045:1,2016-05-14T22:00:00Z,26.2168,-96.4998,1006.18,1111122 
TABS,ioos:station:wmo:42045:1,2016-05-14T22:30:00Z,26.2168,-96.4998,1005.15,1111122 
TABS,ioos:station:wmo:42045:1,2016-05-14T23:30:00Z,26.2168,-96.4998,1006.52,1111122 
TABS,ioos:station:wmo:42045:1,2016-05-15T05:30:00Z,26.2168,-96.4998,1006.61,1111122 
TABS,ioos:station:wmo:42045:1,2016-05-15T07:00:00Z,26.2168,-96.4998,1006.44,1111122 
TABS,ioos:station:wmo:42045:1,2016-05-15T09:00:00Z,26.2168,-96.4998,1006.3,1111122 
TABS,ioos:station:wmo:42045:1,2016-05-15T09:30:00Z,26.2168,-96.4998,1006.54,1111122 
TABS,ioos:station:wmo:42045:1,2016-05-15T12:00:00Z,26.2168,-96.4998,1007.72,1111122 
TABS,ioos:station:wmo:42045:1,2016-05-15T12:30:00Z,26.2168,-96.4998,1007.8,1111122 
TABS,ioos:station:wmo:42045:1,2016-05-15T13:30:00Z,26.2168,-96.4998,1008.4,1111122 
TABS,ioos:station:wmo:42045:1,2016-05-15T14:30:00Z,26.2168,-96.4998,1008.29,1111122 
TABS,ioos:station:wmo:42045:1,2016-05-15T17:00:00Z,26.2168,-96.4998,1007.87,1111122 
TABS,ioos:station:wmo:42045:1,2016-05-15T18:00:00Z,26.2168,-96.4998,1007.11,1111122 
TABS,ioos:station:wmo:42045:1,2016-05-15T18:30:00Z,26.2168,-96.4998,1006.6,1111122 
TABS,ioos:station:wmo:42045:1,2016-05-15T20:30:00Z,26.2168,-96.4998,1005.69,1111122 
TABS,ioos:station:wmo:42045:1,2016-05-15T21:30:00Z,26.2168,-96.4998,1004.91,1111122 
TABS,ioos:station:wmo:42045:1,2016-05-15T23:00:00Z,26.2168,-96.4998,1005.17,1111122 
TABS,ioos:station:wmo:42045:1,2016-05-15T23:30:00Z,26.2168,-96.4998,1005.2,1111122 
TABS,ioos:station:wmo:42045:1,2016-05-16T06:00:00Z,26.2168,-96.4998,1005.25,1111122 
TABS,ioos:station:wmo:42045:1,2016-05-16T11:00:00Z,26.2168,-96.4998,1002.22,1111122 
TABS,ioos:station:wmo:42045:1,2016-05-16T12:00:00Z,26.2168,-96.4998,1002.94,1111122 
TABS,ioos:station:wmo:42045:1,2016-05-16T12:30:00Z,26.2168,-96.4998,1002.67,1111122 
TABS,ioos:station:wmo:42045:1,2016-05-16T13:30:00Z,26.2168,-96.4998,1002.41,1111122 
TABS,ioos:station:wmo:42045:1,2016-05-16T14:30:00Z,26.2168,-96.4998,1003.2,1111122 
TABS,ioos:station:wmo:42045:1,2016-05-16T16:00:00Z,26.2168,-96.4998,1003.65,1111122 
TABS,ioos:station:wmo:42045:1,2016-05-16T16:30:00Z,26.2168,-96.4998,1003.3,1111122 
TABS,ioos:station:wmo:42045:1,2016-05-16T18:00:00Z,26.2168,-96.4998,1002.57,1111122 
TABS,ioos:station:wmo:42045:1,2016-05-16T20:00:00Z,26.2168,-96.4998,1001.34,1111122 
TABS,ioos:station:wmo:42045:1,2016-05-16T22:00:00Z,26.2168,-96.4998,1000.09,1111122 
TABS,ioos:station:wmo:42045:1,2016-05-16T23:00:00Z,26.2168,-96.4998,999.86,1111122 
TABS,ioos:station:wmo:42045:1,2016-05-16T23:30:00Z,26.2168,-96.4998,999.63,1111122 
TABS,ioos:station:wmo:42045:1,2016-05-17T04:00:00Z,26.2168,-96.4998,1001.4,1111122 
TABS,ioos:station:wmo:42045:1,2016-05-17T06:00:00Z,26.2168,-96.4998,1000.91,1111122 
TABS,ioos:station:wmo:42045:1,2016-05-17T07:00:00Z,26.2168,-96.4998,1000.53,1111122 
TABS,ioos:station:wmo:42045:1,2016-05-17T09:00:00Z,26.2168,-96.4998,999.58,1111122 
TABS,ioos:station:wmo:42045:1,2016-05-17T09:30:00Z,26.2168,-96.4998,1000.25,1111122 
TABS,ioos:station:wmo:42045:1,2016-05-17T11:00:00Z,26.2168,-96.4998,1000.3,1111122 
TABS,ioos:station:wmo:42045:1,2016-05-17T11:30:00Z,26.2168,-96.4998,1000.83,1111122 
TABS,ioos:station:wmo:42045:1,2016-05-17T13:00:00Z,26.2168,-96.4998,1002.19,1111122 
TABS,ioos:station:wmo:42045:1,2016-05-17T14:00:00Z,26.2168,-96.4998,1004.15,1111122 
TABS,ioos:station:wmo:42045:1,2016-05-17T16:30:00Z,26.2168,-96.4998,1004.11,1111122 
TABS,ioos:station:wmo:42045:1,2016-05-17T18:00:00Z,26.2168,-96.4998,1003.41,1111122 
TABS,ioos:station:wmo:42045:1,2016-05-17T18:30:00Z,26.2168,-96.4998,1002.79,1111122 
TABS,ioos:station:wmo:42045:1,2016-05-17T20:00:00Z,26.2168,-96.4998,1001.62,1111122 
TABS,ioos:station:wmo:42045:1,2016-05-17T22:00:00Z,26.2168,-96.4998,1001.08,1111122 
TABS,ioos:station:wmo:42045:1,2016-05-17T23:00:00Z,26.2168,-96.4998,1001.38,1111122 
TABS,ioos:station:wmo:42045:1,2016-05-17T23:30:00Z,26.2168,-96.4998,1001.41,1111122 
TABS,ioos:station:wmo:42045:1,2016-05-18T06:00:00Z,26.2168,-96.4998,1005.89,1111122 
TABS,ioos:station:wmo:42045:1,2016-05-18T07:00:00Z,26.2168,-96.4998,1005.39,1111122 
TABS,ioos:station:wmo:42045:1,2016-05-18T08:00:00Z,26.2168,-96.4998,1004.9,1111122 
TABS,ioos:station:wmo:42045:1,2016-05-18T10:00:00Z,26.2168,-96.4998,1002.82,1111122 
TABS,ioos:station:wmo:42045:1,2016-05-18T11:00:00Z,26.2168,-96.4998,1005.08,1111122 
TABS,ioos:station:wmo:42045:1,2016-05-18T12:00:00Z,26.2168,-96.4998,1005.99,1111122 
TABS,ioos:station:wmo:42045:1,2016-05-18T13:00:00Z,26.2168,-96.4998,1006.76,1111122 
TABS,ioos:station:wmo:42045:1,2016-05-18T15:00:00Z,26.2168,-96.4998,1006.74,1111122 
TABS,ioos:station:wmo:42045:1,2016-05-18T16:00:00Z,26.2168,-96.4998,1007.79,1111122 
TABS,ioos:station:wmo:42045:1,2016-05-18T17:00:00Z,26.2168,-96.4998,1007.35,1111122 
TABS,ioos:station:wmo:42045:1,2016-05-18T19:00:00Z,26.2168,-96.4998,1006.09,1111122 
TABS,ioos:station:wmo:42045:1,2016-05-18T21:00:00Z,26.2168,-96.4998,1005.59,1111122 
TABS,ioos:station:wmo:42045:1,2016-05-18T23:00:00Z,26.2168,-96.4998,1004.86,1111122 
TABS,ioos:station:wmo:42045:1,2016-05-18T23:30:00Z,26.2168,-96.4998,1005.32,1111122 
TABS,ioos:station:wmo:42045:1,2016-05-19T04:30:00Z,26.2168,-96.4998,1006.18,1111122 
TABS,ioos:station:wmo:42045:1,2016-05-19T06:30:00Z,26.2168,-96.4998,1005.32,1111122 
TABS,ioos:station:wmo:42045:1,2016-05-19T07:30:00Z,26.2168,-96.4998,1004.65,1111122 
TABS,ioos:station:wmo:42045:1,2016-05-19T09:30:00Z,26.2168,-96.4998,1004.34,1111122 
TABS,ioos:station:wmo:42045:1,2016-05-19T11:00:00Z,26.2168,-96.4998,1004.01,1111122 
TABS,ioos:station:wmo:42045:1,2016-05-19T11:30:00Z,26.2168,-96.4998,1003.65,1111122 
TABS,ioos:station:wmo:42045:1,2016-05-19T12:30:00Z,26.2168,-96.4998,1003.87,1111122 
TABS,ioos:station:wmo:42045:1,2016-05-19T14:00:00Z,26.2168,-96.4998,1004.13,1111122 
TABS,ioos:station:wmo:42045:1,2016-05-19T16:00:00Z,26.2168,-96.4998,1004.65,1111122 
TABS,ioos:station:wmo:42045:1,2016-05-19T17:30:00Z,26.2168,-96.4998,1005.6,1111122 
TABS,ioos:station:wmo:42045:1,2016-05-19T19:00:00Z,26.2168,-96.4998,1004.14,1111122 
TABS,ioos:station:wmo:42045:1,2016-05-19T19:30:00Z,26.2168,-96.4998,1002.92,1111122 
TABS,ioos:station:wmo:42045:1,2016-05-19T21:00:00Z,26.2168,-96.4998,999.02,1111122 
TABS,ioos:station:wmo:42045:1,2016-05-19T23:00:00Z,26.2168,-96.4998,1000.43,1111122 
TABS,ioos:station:wmo:42045:1,2016-05-19T23:30:00Z,26.2168,-96.4998,1000.65,1111122 
TABS,ioos:station:wmo:42045:1,2016-05-20T05:00:00Z,26.2168,-96.4998,1002.95,1111122 
TABS,ioos:station:wmo:42045:1,2016-05-20T05:30:00Z,26.2168,-96.4998,1002.62,1111122 
TABS,ioos:station:wmo:42045:1,2016-05-20T07:30:00Z,26.2168,-96.4998,1001.79,1111122 
TABS,ioos:station:wmo:42045:1,2016-05-20T08:30:00Z,26.2168,-96.4998,1001.84,1111122 
TABS,ioos:station:wmo:42045:1,2016-05-20T10:00:00Z,26.2168,-96.4998,1002.54,1111122 
TABS,ioos:station:wmo:42045:1,2016-05-20T11:00:00Z,26.2168,-96.4998,1003.37,1111122 
TABS,ioos:station:wmo:42045:1,2016-05-20T12:00:00Z,26.2168,-96.4998,1004.26,1111122 
TABS,ioos:station:wmo:42045:1,2016-05-20T13:00:00Z,26.2168,-96.4998,1005.11,1111122 
TABS,ioos:station:wmo:42045:1,2016-05-20T14:00:00Z,26.2168,-96.4998,1005.63,1111122 
TABS,ioos:station:wmo:42045:1,2016-05-20T15:00:00Z,26.2168,-96.4998,1006.0,1111122 
TABS,ioos:station:wmo:42045:1,2016-05-20T16:00:00Z,26.2168,-96.4998,1005.96,1111122 
TABS,ioos:station:wmo:42045:1,2016-05-20T17:00:00Z,26.2168,-96.4998,1005.85,1111122 
TABS,ioos:station:wmo:42045:1,2016-05-20T19:00:00Z,26.2168,-96.4998,1004.46,1111122 
TABS,ioos:station:wmo:42045:1,2016-05-20T20:00:00Z,26.2168,-96.4998,1004.01,1111122 
TABS,ioos:station:wmo:42045:1,2016-05-20T21:00:00Z,26.2168,-96.4998,1003.6,1111122 
TABS,ioos:station:wmo:42045:1,2016-05-20T23:00:00Z,26.2168,-96.4998,1003.16,1111122 
TABS,ioos:station:wmo:42045:1,2016-05-20T23:30:00Z,26.2168,-96.4998,1003.08,1111122 
TABS,ioos:station:wmo:42045:1,2016-05-21T06:00:00Z,26.2168,-96.4998,1005.64,1111122 
TABS,ioos:station:wmo:42045:1,2016-05-21T08:00:00Z,26.2168,-96.4998,1005.44,1111122 
TABS,ioos:station:wmo:42045:1,2016-05-21T10:00:00Z,26.2168,-96.4998,1005.81,1111122 
TABS,ioos:station:wmo:42045:1,2016-05-21T11:00:00Z,26.2168,-96.4998,1005.76,1111122 
TABS,ioos:station:wmo:42045:1,2016-05-21T12:00:00Z,26.2168,-96.4998,1006.2,1111122 
TABS,ioos:station:wmo:42045:1,2016-05-21T13:00:00Z,26.2168,-96.4998,1006.86,1111122 
TABS,ioos:station:wmo:42045:1,2016-05-21T14:00:00Z,26.2168,-96.4998,1007.2,1111122 
TABS,ioos:station:wmo:42045:1,2016-05-21T15:00:00Z,26.2168,-96.4998,1007.22,1111122 
TABS,ioos:station:wmo:42045:1,2016-05-21T15:30:00Z,26.2168,-96.4998,1007.22,1111122 
TABS,ioos:station:wmo:42045:1,2016-05-21T17:00:00Z,26.2168,-96.4998,1006.53,1111122 
TABS,ioos:station:wmo:42045:1,2016-05-21T18:00:00Z,26.2168,-96.4998,1006.88,1111122 
TABS,ioos:station:wmo:42045:1,2016-05-21T19:00:00Z,26.2168,-96.4998,1006.35,1111122 
TABS,ioos:station:wmo:42045:1,2016-05-21T20:00:00Z,26.2168,-96.4998,1005.85,1111122 
TABS,ioos:station:wmo:42045:1,2016-05-21T21:00:00Z,26.2168,-96.4998,1005.09,1111122 
TABS,ioos:station:wmo:42045:1,2016-05-21T22:00:00Z,26.2168,-96.4998,1004.32,1111122 
TABS,ioos:station:wmo:42045:1,2016-05-21T22:30:00Z,26.2168,-96.4998,1003.82,1111122 
TABS,ioos:station:wmo:42045:1,2016-05-21T23:30:00Z,26.2168,-96.4998,1003.79,1111122 
TABS,ioos:station:wmo:42045:1,2016-05-22T06:00:00Z,26.2168,-96.4998,1004.27,1111122 
TABS,ioos:station:wmo:42045:1,2016-05-22T07:00:00Z,26.2168,-96.4998,1003.77,1111122 
TABS,ioos:station:wmo:42045:1,2016-05-22T10:00:00Z,26.2168,-96.4998,1003.73,1111122 
TABS,ioos:station:wmo:42045:1,2016-05-22T11:00:00Z,26.2168,-96.4998,1003.75,1111122 
TABS,ioos:station:wmo:42045:1,2016-05-22T12:00:00Z,26.2168,-96.4998,1004.04,1111122 
TABS,ioos:station:wmo:42045:1,2016-05-22T13:00:00Z,26.2168,-96.4998,1003.94,1111122 
TABS,ioos:station:wmo:42045:1,2016-05-22T14:00:00Z,26.2168,-96.4998,1004.3,1111122 
TABS,ioos:station:wmo:42045:1,2016-05-22T15:00:00Z,26.2168,-96.4998,1004.66,1111122 
TABS,ioos:station:wmo:42045:1,2016-05-22T17:00:00Z,26.2168,-96.4998,1004.23,1111122 
TABS,ioos:station:wmo:42045:1,2016-05-22T18:00:00Z,26.2168,-96.4998,1003.58,1111122 
TABS,ioos:station:wmo:42045:1,2016-05-22T19:00:00Z,26.2168,-96.4998,1002.88,1111122 
TABS,ioos:station:wmo:42045:1,2016-05-22T19:30:00Z,26.2168,-96.4998,1002.71,1111122 
TABS,ioos:station:wmo:42045:1,2016-05-22T20:30:00Z,26.2168,-96.4998,1001.94,1111122 
TABS,ioos:station:wmo:42045:1,2016-05-22T22:00:00Z,26.2168,-96.4998,1000.96,1111122 
TABS,ioos:station:wmo:42045:1,2016-05-22T23:30:00Z,26.2168,-96.4998,1000.41,1111122 
TABS,ioos:station:wmo:42045:1,2016-05-23T05:30:00Z,26.2168,-96.4998,1002.88,1111122 
TABS,ioos:station:wmo:42045:1,2016-05-23T06:30:00Z,26.2168,-96.4998,1002.18,1111122 
TABS,ioos:station:wmo:42045:1,2016-05-23T07:30:00Z,26.2168,-96.4998,1001.91,1111122 
TABS,ioos:station:wmo:42045:1,2016-05-23T08:30:00Z,26.2168,-96.4998,1001.1,1111122 
TABS,ioos:station:wmo:42045:1,2016-05-23T10:00:00Z,26.2168,-96.4998,1001.1,1111122 
TABS,ioos:station:wmo:42045:1,2016-05-23T11:00:00Z,26.2168,-96.4998,1001.03,1111122 
TABS,ioos:station:wmo:42045:1,2016-05-23T13:00:00Z,26.2168,-96.4998,1002.26,1111122 
TABS,ioos:station:wmo:42045:1,2016-05-23T14:00:00Z,26.2168,-96.4998,1002.84,1111122 
TABS,ioos:station:wmo:42045:1,2016-05-23T15:00:00Z,26.2168,-96.4998,1002.73,1111122 
TABS,ioos:station:wmo:42045:1,2016-05-23T16:00:00Z,26.2168,-96.4998,1002.64,1111122 
TABS,ioos:station:wmo:42045:1,2016-05-23T17:00:00Z,26.2168,-96.4998,1002.74,1111122 
TABS,ioos:station:wmo:42045:1,2016-05-23T18:00:00Z,26.2168,-96.4998,1002.2,1111122 
TABS,ioos:station:wmo:42045:1,2016-05-23T18:30:00Z,26.2168,-96.4998,1002.1,1111122 
TABS,ioos:station:wmo:42045:1,2016-05-23T19:30:00Z,26.2168,-96.4998,1001.46,1111122 
TABS,ioos:station:wmo:42045:1,2016-05-23T21:00:00Z,26.2168,-96.4998,1000.5,1111122 
TABS,ioos:station:wmo:42045:1,2016-05-23T22:00:00Z,26.2168,-96.4998,1000.03,1111122 
TABS,ioos:station:wmo:42045:1,2016-05-23T23:30:00Z,26.2168,-96.4998,999.42,1111122 
TABS,ioos:station:wmo:42045:1,2016-05-24T06:00:00Z,26.2168,-96.4998,1002.97,1111122 
TABS,ioos:station:wmo:42045:1,2016-05-24T09:00:00Z,26.2168,-96.4998,1001.74,1111122 
TABS,ioos:station:wmo:42045:1,2016-05-24T09:30:00Z,26.2168,-96.4998,1001.81,1111122 
TABS,ioos:station:wmo:42045:1,2016-05-24T10:30:00Z,26.2168,-96.4998,1001.32,1111122 
TABS,ioos:station:wmo:42045:1,2016-05-24T11:30:00Z,26.2168,-96.4998,1001.74,1111122 
TABS,ioos:station:wmo:42045:1,2016-05-24T13:00:00Z,26.2168,-96.4998,1002.88,1111122 
TABS,ioos:station:wmo:42045:1,2016-05-24T14:00:00Z,26.2168,-96.4998,1003.82,1111122 
TABS,ioos:station:wmo:42045:1,2016-05-24T14:30:00Z,26.2168,-96.4998,1003.76,1111122 
TABS,ioos:station:wmo:42045:1,2016-05-24T15:30:00Z,26.2168,-96.4998,1004.16,1111122 
TABS,ioos:station:wmo:42045:1,2016-05-24T18:00:00Z,26.2168,-96.4998,1004.01,1111122 
TABS,ioos:station:wmo:42045:1,2016-05-24T19:30:00Z,26.2168,-96.4998,1003.15,1111122 